Location: Caserta
(41.0670°N, 14.3330°E)
Time: 01:17:55
(UTC+01:00)

STARLINK-1329 - Pass Details

Date: 07 October 2020
Orbit: 548 x 551 km, 53.0° (Epoch: 27 October)

Event Time Altitude Azimuth Distance (km) Brightness Sun altitude
Exits shadow 06:33:23 - 312° (NW) 2,526 6.5 -6.9°
Reaches altitude 10° 06:35:35 10° 328° (NNW) 1,828 6.0 -6.5°
Maximum altitude 06:38:37 19° 15° (NNE) 1,335 5.8 -5.9°
Drops below altitude 10° 06:41:39 10° 62° (ENE) 1,827 7.4 -5.4°
Sets 06:44:25 0° 80° (E) 2,720 9.2 -4.9°
